Airfield :
LOGIN :

Register | Disclaimer

   EN    FR    IT 

 










Legend :    VFR   Marginal VFR   IFR   Intensive IFR   Very Intensive IFR
Visi :
Ceiling :
>= 8 km
>= 3000ft
5 to 8 km
1000 to 3000 ft
1500m to 5 km
500 to 1000 ft
800 to 1500m
200 to 500 ft
< 800m
< 200 ft
Symbols :   Thunderstorms  Fog  Heavy snow  Heavy precipitations  Wind > 20 kt
SIGMETs :     Misc.  Thunderstorms  Icing  Turbulence  Mountain Waves  Volcanic Ashes







- Airport Elevation : 92 ft


EGXZ - RAP Topcliffe

CURRENT METAR :
  • 111650Z AUTO 16006KT 1700 BR OVC003/// 05/05 Q1022

EXPIRED METARs :
  • 111550Z AUTO 15010KT 1900 OVC002/// 04/04 Q1022
  • 111450Z AUTO 15008KT 0800 FG OVC001/// 04/04 Q1022

TAF AMD TAF EGXZ
Valid from the 11 at 12:00 until the 11 at 19:00 UTC


111218Z 1112/1119 13007KT 8000 HZ FEW006 BKN035
BECMG 1112/1115 4000 BR BKN005
PROB40 1113/1119 0600 FG BKN001
No reported NOTAMs for that airfield.



MET'MAP, your aeronautical weather chart ! - Copyright ORBIFLY December 2007 - Disclaimer

ORBIFLY MET'MAP TEAM :

Programming & Development : Alexandra Zaïnal
Concept & Development : Baudouin d'Aumeries
Co-Development & Prog : Marc-Olivier Méhu
Technical & hardware support : Manuel Goepfert

Contact : metmap@orbifly.com




SOURCES & CREDITS :

   NOAA